When you browse on this site, cookies collect data to enhance your experience and personalize the content and advertising you see.
Visit our Privacy Policy to learn more. By continuing to use the site, you agree to this use of cookies and data.
  • In Romania
  • List of Countries
  • For 7 days
  • Water Temperature
  • Weather Map
  • Weather Widgets
  • user-avatar
    Login

    Hourly Weather Winchester

    Today, 10 December, Tuesday

    Time Temperature Precipitation Wind Pressure Humidity
    00:00 +4°C° 0 mm 1 mps 763 mmHg 87%
    01:00 +3°C° 0 mm 2 mps 762 mmHg 87%
    02:00 +4°C° 0 mm 2 mps 762 mmHg 87%
    03:00 +3°C° 0 mm 3 mps 761 mmHg 87%
    04:00 +4°C° 0 mm 4 mps 761 mmHg 87%
    05:00 +5°C° 0 mm 5 mps 760 mmHg 87%
    06:00 +4°C° 0 mm 6 mps 759 mmHg 87%
    07:00 +5°C° 0 mm 7 mps 758 mmHg 87%
    08:00 +6°C° 0 mm 8 mps 757 mmHg 87%
    09:00 +7°C° 0 mm 9 mps 756 mmHg 86%
    10:00 +7°C° 0.7 mm 10 mps 755 mmHg 88%
    11:00 +7°C° 0.7 mm 11 mps 754 mmHg 90%
    12:00 +8°C° 0.7 mm 12 mps 754 mmHg 91%
    13:00 +8°C° 0.5 mm 12 mps 752 mmHg 91%
    14:00 +9°C° 0.5 mm 12 mps 750 mmHg 90%
    15:00 +9°C° 0.5 mm 12 mps 749 mmHg 89%
    16:00 +10°C° 0.3 mm 13 mps 748 mmHg 89%
    17:00 +10°C° 0.3 mm 13 mps 748 mmHg 89%
    18:00 +10°C° 0.3 mm 14 mps 747 mmHg 89%
    19:00 +8°C° 1.5 mm 11 mps 748 mmHg 89%
    20:00 +7°C° 1.5 mm 9 mps 748 mmHg 88%
    21:00 +5°C° 1.5 mm 7 mps 749 mmHg 88%
    22:00 +4°C° 0.1 mm 6 mps 750 mmHg 86%
    23:00 +4°C° 0.1 mm 6 mps 750 mmHg 84%

    Tomorrow, 11 December, Wednesday

    Time Temperature Precipitation Wind Pressure Humidity
    00:00 +5°C° 0.1 mm 5 mps 751 mmHg 83%
    01:00 +4°C° 0 mm 4 mps 751 mmHg 84%
    02:00 +4°C° 0 mm 4 mps 751 mmHg 85%
    03:00 +3°C° 0 mm 4 mps 750 mmHg 86%
    04:00 +3°C° 0 mm 4 mps 750 mmHg 86%
    05:00 +3°C° 0 mm 4 mps 750 mmHg 86%
    06:00 +3°C° 0 mm 4 mps 749 mmHg 86%
    07:00 +3°C° 0 mm 4 mps 749 mmHg 85%
    08:00 +4°C° 0 mm 4 mps 748 mmHg 85%
    09:00 +4°C° 0 mm 4 mps 748 mmHg 84%
    10:00 +5°C° 0.1 mm 5 mps 747 mmHg 82%
    11:00 +5°C° 0.1 mm 6 mps 746 mmHg 80%
    12:00 +5°C° 0.1 mm 7 mps 746 mmHg 78%
    13:00 +5°C° 0.1 mm 7 mps 745 mmHg 79%
    14:00 +4°C° 0.1 mm 6 mps 745 mmHg 81%
    15:00 +3°C° 0.1 mm 6 mps 744 mmHg 83%
    16:00 +2°C° 0 mm 6 mps 745 mmHg 83%
    17:00 +2°C° 0 mm 5 mps 745 mmHg 83%
    18:00 +1°C° 0 mm 5 mps 746 mmHg 83%
    19:00 +1°C° 0 mm 5 mps 746 mmHg 84%
    20:00 +1°C° 0 mm 5 mps 747 mmHg 84%
    21:00 +1°C° 0 mm 5 mps 747 mmHg 84%
    22:00 0°C° 0 mm 4 mps 748 mmHg 85%
    23:00 0°C° 0 mm 4 mps 748 mmHg 86%

    Day after tomorrow, 12 December, Thursday

    Time Temperature Precipitation Wind Pressure Humidity
    00:00 0°C° 0 mm 4 mps 748 mmHg 87%
    01:00 0°C° 0 mm 4 mps 748 mmHg 87%
    02:00 0°C° 0 mm 4 mps 747 mmHg 87%
    03:00 0°C° 0 mm 4 mps 747 mmHg 87%
    04:00 +1°C° 0 mm 3 mps 747 mmHg 86%
    05:00 +1°C° 0 mm 3 mps 746 mmHg 85%
    06:00 +1°C° 0 mm 3 mps 745 mmHg 84%
    07:00 +1°C° 0 mm 4 mps 744 mmHg 84%
    08:00 +2°C° 0 mm 5 mps 743 mmHg 85%
    09:00 +3°C° 0 mm 5 mps 741 mmHg 86%
    10:00 +4°C° 1.1 mm 7 mps 739 mmHg 88%
    11:00 +5°C° 1.1 mm 9 mps 737 mmHg 90%
    12:00 +6°C° 1.1 mm 11 mps 735 mmHg 92%
    13:00 +6°C° 2.6 mm 10 mps 732 mmHg 92%
    14:00 +6°C° 2.6 mm 9 mps 730 mmHg 92%
    15:00 +7°C° 2.6 mm 9 mps 728 mmHg 92%
    16:00 +6°C° 1 mm 8 mps 726 mmHg 91%
    17:00 +6°C° 1 mm 8 mps 725 mmHg 89%
    18:00 +6°C° 1 mm 7 mps 723 mmHg 88%
    19:00 +5°C° 0.5 mm 8 mps 723 mmHg 87%
    20:00 +5°C° 0.5 mm 8 mps 722 mmHg 86%
    21:00 +3°C° 0.5 mm 9 mps 722 mmHg 85%
    22:00 +3°C° 0.8 mm 10 mps 722 mmHg 87%
    23:00 +3°C° 0.8 mm 11 mps 721 mmHg 88%

    13 December, Friday

    Time Temperature Precipitation Wind Pressure Humidity
    00:00 +2°C° 0.8 mm 12 mps 721 mmHg 90%
    01:00 +3°C° 0.8 mm 11 mps 721 mmHg 90%
    02:00 +3°C° 0.8 mm 11 mps 720 mmHg 89%
    03:00 +4°C° 0.8 mm 11 mps 720 mmHg 89%
    04:00 +4°C° 1 mm 11 mps 721 mmHg 88%
    05:00 +5°C° 1 mm 10 mps 723 mmHg 87%
    06:00 +5°C° 1 mm 10 mps 724 mmHg 86%
    07:00 +5°C° 0.2 mm 10 mps 725 mmHg 86%
    08:00 +5°C° 0.2 mm 10 mps 727 mmHg 86%
    09:00 +5°C° 0.2 mm 10 mps 728 mmHg 86%
    10:00 +5°C° 0.1 mm 10 mps 729 mmHg 83%
    11:00 +5°C° 0.1 mm 10 mps 730 mmHg 80%
    12:00 +6°C° 0.1 mm 10 mps 731 mmHg 77%
    13:00 +6°C° 0 mm 9 mps 732 mmHg 78%
    14:00 +6°C° 0 mm 9 mps 732 mmHg 79%
    15:00 +6°C° 0 mm 9 mps 733 mmHg 80%
    16:00 +5°C° 0 mm 9 mps 734 mmHg 80%
    17:00 +4°C° 0 mm 8 mps 734 mmHg 81%
    18:00 +4°C° 0 mm 7 mps 735 mmHg 82%
    19:00 +3°C° 0 mm 7 mps 735 mmHg 82%
    20:00 +3°C° 0 mm 6 mps 734 mmHg 83%
    21:00 +3°C° 0 mm 5 mps 734 mmHg 84%
    22:00 +5°C° 0.8 mm 5 mps 733 mmHg 87%
    23:00 +5°C° 0.8 mm 6 mps 732 mmHg 91%

    14 December, Saturday

    Time Temperature Precipitation Wind Pressure Humidity
    00:00 +6°C° 0.8 mm 7 mps 731 mmHg 95%
    01:00 +6°C° 0.1 mm 9 mps 731 mmHg 87%
    02:00 +6°C° 0.1 mm 10 mps 731 mmHg 80%
    03:00 +4°C° 0.1 mm 12 mps 730 mmHg 73%
    04:00 +4°C° 0 mm 11 mps 731 mmHg 72%
    05:00 +3°C° 0 mm 10 mps 732 mmHg 71%
    06:00 +2°C° 0 mm 9 mps 733 mmHg 70%
    07:00 +2°C° 0 mm 9 mps 733 mmHg 73%
    08:00 +2°C° 0 mm 8 mps 734 mmHg 76%
    09:00 +2°C° 0 mm 8 mps 735 mmHg 80%
    10:00 +2°C° 0.4 mm 9 mps 735 mmHg 80%
    11:00 +2°C° 0.4 mm 10 mps 736 mmHg 80%
    12:00 +2°C° 0.4 mm 11 mps 737 mmHg 80%
    13:00 +2°C° 0.1 mm 10 mps 737 mmHg 79%
    14:00 +2°C° 0.1 mm 10 mps 738 mmHg 78%
    15:00 +2°C° 0.1 mm 9 mps 738 mmHg 76%
    16:00 +2°C° 0 mm 8 mps 739 mmHg 75%
    17:00 +1°C° 0 mm 8 mps 739 mmHg 74%
    18:00 +1°C° 0 mm 8 mps 740 mmHg 72%
    19:00 +2°C° 0 mm 7 mps 740 mmHg 75%
    20:00 +1°C° 0 mm 6 mps 741 mmHg 77%
    21:00 +1°C° 0 mm 5 mps 741 mmHg 80%
    22:00 +1°C° 0.1 mm 5 mps 740 mmHg 82%
    23:00 +2°C° 0.1 mm 5 mps 739 mmHg 84%

    15 December, Sunday

    Time Temperature Precipitation Wind Pressure Humidity
    00:00 +3°C° 0.1 mm 4 mps 738 mmHg 86%
    01:00 +3°C° 1.8 mm 7 mps 737 mmHg 87%
    02:00 +2°C° 1.8 mm 9 mps 736 mmHg 88%
    03:00 +3°C° 1.8 mm 11 mps 735 mmHg 89%
    04:00 +2°C° 0.3 mm 10 mps 735 mmHg 86%
    05:00 +2°C° 0.3 mm 9 mps 736 mmHg 83%
    06:00 +1°C° 0.3 mm 8 mps 736 mmHg 80%
    07:00 +1°C° 0.1 mm 8 mps 737 mmHg 80%
    08:00 +1°C° 0.1 mm 8 mps 738 mmHg 80%
    09:00 +1°C° 0.1 mm 8 mps 738 mmHg 80%
    10:00 +3°C° 0.1 mm 7 mps 739 mmHg 78%
    11:00 +3°C° 0.1 mm 7 mps 740 mmHg 77%
    12:00 +4°C° 0.1 mm 7 mps 741 mmHg 75%
    13:00 +4°C° 0 mm 6 mps 742 mmHg 76%
    14:00 +4°C° 0 mm 6 mps 742 mmHg 76%
    15:00 +4°C° 0 mm 6 mps 743 mmHg 77%
    16:00 +5°C° 0.1 mm 5 mps 743 mmHg 78%
    17:00 +3°C° 0.1 mm 5 mps 744 mmHg 80%
    18:00 +4°C° 0.1 mm 4 mps 744 mmHg 81%
    19:00 +4°C° 0.2 mm 4 mps 744 mmHg 83%
    20:00 +4°C° 0.2 mm 4 mps 744 mmHg 84%
    21:00 +4°C° 0.2 mm 4 mps 744 mmHg 85%
    22:00 +3°C° 0.4 mm 5 mps 744 mmHg 84%
    23:00 +4°C° 0.4 mm 6 mps 744 mmHg 83%
    Show more